Location: Jackson Park
(37.2862°N, 79.9123°W)
Time: 21:32:29
(UTC+00:00)

Transit 4A - Pass Details

Date: 18 May 2026
Orbit: 860 x 980 km, 66.8° (Epoch: 9 June)

Event Time Altitude Azimuth Distance (km) Brightness Sun altitude
Rises 14:18:21 0° 264° (W) 3,574 10.6 47.6°
Reaches altitude 10° 14:22:20 10° 290° (WNW) 2,661 10.0 48.4°
Maximum altitude 14:25:22 14° 319° (NW) 2,413 9.9 49.0°
Drops below altitude 10° 14:28:28 10° 349° (N) 2,702 10.3 49.6°
Sets 14:32:36 0° 14° (NNE) 3,671 11.0 50.4°
